Regional Weather Roundup
Issued by NWS

Home | Current Version | Previous Version | Text Only | Print | Product List | Glossary Off
Versions: 1 2 3 4 5 6 7 8 9 10 11 12 13 14 15 16 17 18 19 20 21 22 23 24 25 26 27

000
ASUS45 KSLC 240510
RWRUT

UTAH REGIONAL WEATHER ROUNDUP
NATIONAL WEATHER SERVICE SALT LAKE CITY UT
1100 PM MDT SAT SEP 23 2017

UTZ001>011-023>025-240600-

NORTHERN UTAH

CITY           SKY/WX    TMP DP  RH WIND       PRES   REMARKS
BRIGHAM CITY   CLOUDY    50  37  62 S7        29.95S
HILL AFB       LGT RAIN  43  41  93 S10       29.95S
LOGAN          LGT RAIN  50  37  61 CALM      29.94S
OGDEN          CLOUDY    45  42  89 S12       29.95S
SALT LAKE CITY LGT RAIN  46  43  89 SE7       29.95F
TOOELE VALLEY  LGT RAIN  43  41  93 CALM      29.97F
WENDOVER       PTCLDY    48  30  49 NW9       29.98F
HEBER CITY     MIX PCPN  39  36  87 SW5       29.94S
WEST JORDAN    CLOUDY    42  42 100 NE3       29.97S

$$

UTZ011>015-024>027-240600-

CENTRAL/NORTHEAST UTAH

CITY           SKY/WX    TMP DP  RH WIND       PRES   REMARKS
PROVO AIRPORT  RAIN      44  39  82 NW7       29.98R
MOAB/CANYONLAN CLOUDY    56  43  61 N15G21    29.78R
DELTA          CLOUDY    41  39  93 CALM      29.95F
PRICE          CLOUDY    47  31  53 VRB3      29.85F
ROOSEVELT      CLOUDY    48  37  66 W20G35    29.89R
VERNAL         PTCLDY    51  39  63 NW7       29.83F

$$

UTZ013>016-019>022-027-240600-

SOUTHERN UTAH

CITY           SKY/WX    TMP DP  RH WIND       PRES   REMARKS
BRYCE CANYON   CLOUDY    33  31  92 NW7       29.94S WCI  27
CEDAR CITY     LGT SNOW  34  34 100 N3        29.97S FOG
MILFORD        CLOUDY    42  38  85 NW12      29.95F
ST GEORGE      CLOUDY    49  37  63 E5        29.93R
HANKSVILLE     CLOUDY    54  30  40 NW7       29.83S
BLANDING         N/A     49  17  28 SW7       29.90R

$$

REGIONAL REPORTS     COLORADO/ARIZONA

CITY           SKY/WX    TMP DP  RH WIND       PRES   REMARKS
CRAIG, CO      CLEAR     42  37  82 CALM      29.89F
GRAND JUNCTION CLEAR     48  45  89 SE8       29.81F
RIFLE, CO      CLEAR     45  42  89 CALM      29.86F
MONTROSE, CO   CLEAR     45  42  89 E3        29.85F
CORTEZ, CO     CLEAR     53  44  71 SW8       29.86R
PAGE, AZ       MOCLDY    55  27  34 SW5       29.87R
GRAND CANYON   PTCLDY    43  22  43 NW6       29.96R
KINGMAN, AZ    CLEAR     57  25  29 N14       29.91R
FLAGSTAFF, AZ  CLEAR     43  20  39 W5        29.96S

$$

REGIONAL REPORTS    NEVADA/IDAHO/WYOMING

CITY           SKY/WX    TMP DP  RH WIND       PRES   REMARKS
LAS VEGAS, NV  CLEAR     62  34  35 NE16G24   29.90R
ELY, NY        PTCLDY    32  30  92 W7        30.02S WCI  26
ELKO, NV       PTCLDY    40  29  64 E6        30.04R
POCATELLO, ID  CLOUDY    41  33  73 NE5       30.00S
BURLEY, ID     MOCLDY    44  37  76 SW5       29.99F
FORT BRIDGER,  CLOUDY    37  37 100 W8        29.98R THUNDER WCI  31
EVANSTON, WY   LGT SNOW  33  33 100 NW3       29.96S FOG
ROCK SPRINGS,  CLOUDY    36  33  89 NE22      29.96S WCI  25
KEMMERER, WY   LGT RAIN  37  36  93 NE8       29.95S WCI  31

$$




USA.gov is the U.S. government's official web portal to all federal, state and local government web resources and services.